Location: �bnet
(46.9957°N, 8.4908°E)
Time: 15:05:36
(UTC+00:00)

Cosmos 1515 Rocket - Pass Details

Date: 11 May 2021
Orbit: 605 x 630 km, 82.5° (Epoch: 17 June)

Event Time Altitude Azimuth Distance (km) Brightness Sun altitude
Exits shadow 20:29:35 18° 171° (S) 1,540 5.1 -14.2°
Maximum altitude 20:32:46 60° 96° (E) 712 3.6 -14.6°
Drops below altitude 10° 20:37:06 10° 16° (NNE) 1,991 6.6 -15.0°
Sets 20:39:21 0° 13° (NNE) 2,897 7.6 -15.3°
